Location: Brad
(46.1333°N, 22.7833°E)
Time: 21:26:55
(UTC+00:00)

Cosmos 1745 Rocket - Pass Details

Date: 03 February 2023
Orbit: 951 x 999 km, 83.0° (Epoch: 22 March)

Event Time Altitude Azimuth Distance (km) Brightness Sun altitude
Rises 17:29:19 0° 352° (N) 3,697 7.1 -19.8°
Reaches altitude 10° 17:31:52 10° 355° (N) 2,738 6.4 -20.2°
Maximum altitude 17:38:09 73° 80° (E) 1,012 3.8 -21.3°
Drops below altitude 10° 17:44:18 10° 165° (SSE) 2,688 6.2 -22.4°
Sets 17:46:47 0° 168° (SSE) 3,625 6.9 -22.8°
